• Join FlightAware (Why Join?)
  • Login
  • US Flag GB Flag 
08:12 EDT


 

Airport Tracker/Info


-or-


 

Live Flight TrackerFlight Track Log ✈ JBU1329 ✈ 26-Apr-2013 ✈ KBOS - KBWI

Flight Track Log - Related Links

Times and Time Zones

All times are in EDT time to prevent confusion due to time zone crossing. See the JBU1329 flight status page for this flight to view local times or setup timezone preferences in your user account.

Time Position Orientation Groundspeed Altitude Reporting Facility
EDT Latitude Longitude Course Direction KTS MPH feet Rate Location/Type
08:53 42.3667 -70.9833 198° South 144 166 600  Level KA90
08:53 42.3667 -70.9667 90° East 145 167 1,700 2,100 Climbing KA90
08:54 42.3833 -70.8833 75° East 208 239 3,800 2,520 Climbing KA90
08:55 42.3833 -70.7833 90° East 277 319 7,100 3,060 Climbing KA90
08:56 42.2725 -70.6725 143° Southeast  Level FlightAware Approximate
08:57 42.1767 -70.6217 160° South  Level FlightAware Approximate
08:57 42.2994 -70.6886 140° Southeast 295 339 11,700  Level Boston Center
08:58 42.0797 -70.6254 198° South  Level FlightAware Approximate
08:58 42.2111 -70.6489 162° South 312 359 14,100  Level Boston Center
08:59 42.1169 -70.6236 169° South 336 387 17,000 1,980 Climbing Boston Center
09:00 42.0303 -70.6681 201° Southwest 342 394 18,500 1,860 Climbing Boston Center
09:01 41.9100 -70.7217 198° South 364 419 21,200 2,280 Climbing Boston Center
09:02 41.8067 -70.7747 201° Southwest 384 442 23,100 1,800 Climbing Boston Center
09:03 41.6931 -70.8500 206° Southwest 404 465 24,900 1,560 Climbing Boston Center
09:04 41.6086 -70.9242 213° Southwest 412 474 26,300 1,440 Climbing Boston Center
09:05 41.5161 -71.0233 219° Southwest 423 487 27,800 1,440 Climbing Boston Center
09:06 41.4425 -71.1414 230° Southwest 415 478 29,200 1,380 Climbing Boston Center
09:07 41.3647 -71.2647 230° Southwest 420 483 30,600 1,380 Climbing Boston Center
09:08 41.2931 -71.3847 232° Southwest 426 490 32,000 660 Climbing Boston Center
09:09 41.2189 -71.5019 230° Southwest 426 490 32,000  Level Boston Center
09:10 41.1489 -71.5967 226° Southwest 420 483 32,000  Level Boston Center
09:11 41.0519 -71.7328 227° Southwest 420 483 32,000 -60 Level Boston Center
09:12 40.9839 -71.8461 232° Southwest 428 493 31,900  Descending Boston Center
09:13 40.8883 -71.9569 221° Southwest 428 493 32,000  Climbing Boston Center
09:14 40.8075 -72.0700 227° Southwest 422 486 32,000  Level Boston Center
09:15 40.7247 -72.1828 226° Southwest 422 486 32,000  Level Boston Center
09:16 40.6353 -72.2925 223° Southwest 433 498 32,000  Level Boston Center
09:17 40.5603 -72.4100 230° Southwest 433 498 32,000  Level Boston Center
09:18 40.4728 -72.5219 224° Southwest 433 498 32,000  Level Boston Center
09:19 40.3892 -72.6361 226° Southwest 433 498 32,000  Level Boston Center
09:20 40.3036 -72.7503 226° Southwest 439 505 32,000  Level Boston Center
09:21 40.2156 -72.8667 225° Southwest 439 505 32,000  Level Boston Center
09:22 40.1403 -72.9747 228° Southwest 444 511 32,000  Level Boston Center
09:23 40.0542 -73.0881 225° Southwest 444 511 32,000  Level Boston Center
09:24 39.9383 -73.2456 226° Southwest 431 496 32,000  Level Washington Center
09:25 39.8611 -73.3453 225° Southwest 419 482 32,000 -480 Level Washington Center
09:26 39.7650 -73.4347 216° Southwest 402 463 31,100 -1,260 Descending Washington Center
09:27 39.6661 -73.4997 207° Southwest 390 449 29,600 -1,620 Descending Washington Center
09:28 39.5756 -73.5669 210° Southwest 390 449 28,000 -1,800 Descending Washington Center
09:29 39.4850 -73.6314 209° Southwest 384 442 26,000 -1,920 Descending Washington Center
09:30 39.3961 -73.6903 207° Southwest 373 429 24,300 -1,020 Descending Washington Center
09:31 39.3392 -73.7803 231° Southwest 332 382 24,000 -180 Descending Washington Center
09:32 39.2886 -73.8781 236° Southwest 332 382 24,000  Level Washington Center
09:33 39.2378 -73.9758 236° Southwest 337 388 24,000 -300 Level Washington Center
09:34 39.1808 -74.0814 235° Southwest 347 399 23,500 -1,380 Descending Washington Center
09:35 39.1239 -74.1897 236° Southwest 359 413 21,400 -2,100 Descending Washington Center
09:36 39.0667 -74.2978 236° Southwest 364 419 19,300 -1,920 Descending Washington Center
09:37 39.0114 -74.4028 236° Southwest 364 419 17,600 -1,740 Descending Washington Center
09:38 38.9542 -74.5025 234° Southwest 364 419 15,900 -1,080 Descending Washington Center
09:39 38.9239 -74.6150 251° West 344 396 15,500 -720 Descending Washington Center
09:40 38.9039 -74.7300 257° West 336 387 14,500 -840 Descending Washington Center
09:41 38.8817 -74.8397 255° West 326 375 13,900 -360 Descending Washington Center
09:42 38.8594 -74.9492 255° West 326 375 13,900 -360 Level Washington Center
09:43 38.8392 -75.0639 257° West 321 369 13,200 -900 Descending Washington Center
09:44 38.8186 -75.1733 256° West 321 369 12,200 -1,020 Descending Washington Center
09:45 38.8067 -75.2825 262° West 321 369 11,200 -660 Descending Washington Center
09:46 38.7983 -75.3919 264° West 316 364 11,000 -120 Descending Washington Center
09:47 38.7922 -75.5011 266° West 311 358 11,000  Level Washington Center
09:48 38.7861 -75.6131 266° West 311 358 11,000  Level Washington Center
09:49 38.7797 -75.7222 266° West 311 358 11,000  Level Washington Center
09:50 38.7714 -75.8286 264° West 311 358 11,000  Level Washington Center
09:51 38.7628 -75.9378 264° West 311 358 11,000  Level Washington Center
09:52 38.7561 -76.0417 265° West 306 352 11,000  Level Washington Center
09:53 38.7850 -76.1269 294° West 273 314 11,000 -480 Level Washington Center
09:54 38.7886 -76.2122 273° West 269 310 10,100 -1,380 Descending Washington Center
09:55 38.8092 -76.2975 287° West 269 310 8,300 -1,800 Descending Washington Center
09:56 38.8650 -76.3622 318° Northwest 251 289 6,500 -1,980 Descending Washington Center
09:57 38.9167 -76.4000 330° Northwest 251 289 5,000 -1,500 Descending Potomac TRACON
09:58 38.9667 -76.4667 314° West 236 272 4,000 -540 Descending Potomac TRACON
09:59 39.0000 -76.5167 311° West 209 241 4,000 -480 Level Potomac TRACON
10:00 39.0500 -76.5500 333° Northwest 189 217 3,100 -960 Descending Potomac TRACON
10:01 39.0833 -76.6000 311° West 186 214 2,100 -1,020 Descending Potomac TRACON
10:02 39.1333 -76.6333 333° Northwest 166 191 1,200 -1,020 Descending Potomac TRACON
10:04 39.1667 -76.6667 308° West  Level FlightAware Approximate
10:11 39.1754 -76.6683 308° West  Level Estimated